Main page
METAR-TAF:

METAR-TAF

Airports :

Noshahr Airport

Noshahr, Iran

latitude: 36-39-48N, longitude: 051-27-53E, elevation: 0 m

Current weather observation

The report was made 1 hour and 9 minutes ago, at 16:00 UTC
Wind 4 kt from the South
Temperature 18°C
Humidity 77%
Pressure 1021 hPa
Visibility 10 km or more
Scattered clouds at a height of 2500 ft

METAR: OINN 181600Z 18004KT 9999 SCT025 18/14 Q1021

Time: 20:39 (17:09 UTC)


TAF: missing

Weather observations and forecasts of more than 4000 airports (METAR and TAF reports).

The available stations are represented by yellow and red dots on the map.

Hover mouse over dot to see the name of the station.

Then click to see weather observations and forecasts.

To change the map : click on the green buttons with a black cross to zoom in, on the green button with a dash to zoom out, or on the green arrows for adjacent maps.


METAR-TAF: